| time (UTC) | temp F | wind direction | speed MPH | gust MPH | rain 1hr in | rain 24hr in | rain mn in | humidity % | barometer mb |
| 20260503044527 | 73 | 349 | 14.0 | 16.0 | 0.00 | 0.00 | 0.00 | 35 | 1011.1 |
| 20260503043013 | 72 | 349 | 13.0 | 16.0 | 0.00 | 0.00 | 0.00 | 36 | 1011.0 |
| 20260503041513 | 72 | 343 | 13.0 | 15.0 | 0.00 | 0.00 | 0.00 | 36 | 1010.9 |
| 20260503040015 | 72 | 343 | 13.0 | 15.0 | 0.00 | 0.00 | 0.00 | 36 | 1010.7 |
| 20260503034513 | 74 | 352 | 9.0 | 16.0 | 0.00 | 0.00 | 0.00 | 33 | 1010.5 |
| 20260503033014 | 73 | 349 | 12.0 | 13.0 | 0.00 | 0.00 | 0.00 | 36 | 1010.2 |
| 20260503031511 | 74 | 353 | 10.0 | 12.0 | 0.00 | 0.00 | 0.00 | 35 | 1010.0 |
| 20260503030104 | 75 | 356 | 12.0 | 13.0 | 0.00 | 0.00 | 0.00 | 33 | 1009.8 |
| 20260503024558 | 79 | 32 | 8.0 | 9.0 | 0.00 | 0.00 | 0.00 | 28 | 1009.7 |
| 20260503023040 | 81 | 9 | 7.0 | 10.0 | 0.00 | 0.00 | 0.00 | 27 | 1009.6 |
| 20260503021535 | 82 | 35 | 7.0 | 10.0 | 0.00 | 0.00 | 0.00 | 26 | 1009.5 |
| 20260503020033 | 83 | 39 | 7.0 | 10.0 | 0.00 | 0.00 | 0.00 | 25 | 1009.5 |
| 20260503014523 | 84 | 82 | 9.0 | 12.0 | 0.00 | 0.00 | 0.00 | 23 | 1009.4 |
| 20260503013022 | 84 | 72 | 9.0 | 11.0 | 0.00 | 0.00 | 0.00 | 23 | 1009.5 |
| 20260503011522 | 85 | 91 | 9.0 | 15.0 | 0.00 | 0.00 | 0.00 | 22 | 1009.6 |
| 20260503010021 | 85 | 70 | 9.0 | 14.0 | 0.00 | 0.00 | 0.00 | 21 | 1009.6 |
| 20260503004522 | 86 | 86 | 14.0 | 18.0 | 0.00 | 0.00 | 0.00 | 20 | 1009.6 |
| 20260503003029 | 86 | 81 | 13.0 | 19.0 | 0.00 | 0.00 | 0.00 | 20 | 1009.7 |
| 20260503001519 | 86 | 98 | 15.0 | 19.0 | 0.00 | 0.00 | 0.00 | 20 | 1009.7 |
| 20260503000103 | 86 | 71 | 10.0 | 16.0 | 0.00 | 0.00 | 0.00 | 21 | 1009.7 |
| 20260502234608 | 86 | 93 | 14.0 | 18.0 | 0.00 | 0.00 | 0.00 | 21 | 1009.8 |
| 20260502233035 | 87 | 34 | 14.0 | 18.0 | 0.00 | 0.00 | 0.00 | 21 | 1009.9 |
| 20260502231534 | 86 | 83 | 16.0 | 20.0 | 0.00 | 0.00 | 0.00 | 22 | 1010.0 |
| 20260502230015 | 86 | 77 | 13.0 | 17.0 | 0.00 | 0.00 | 0.00 | 22 | 1010.2 |
| 20260502224513 | 86 | 67 | 10.0 | 17.0 | 0.00 | 0.00 | 0.00 | 22 | 1010.3 |
| 20260502223103 | 86 | 86 | 12.0 | 18.0 | 0.00 | 0.00 | 0.00 | 22 | 1010.6 |
| 20260502221552 | 86 | 90 | 12.0 | 20.0 | 0.00 | 0.00 | 0.00 | 24 | 1010.7 |
| 20260502220036 | 85 | 96 | 11.0 | 17.0 | 0.00 | 0.00 | 0.00 | 24 | 1010.9 |
| 20260502214528 | 85 | 94 | 9.0 | 18.0 | 0.00 | 0.00 | 0.00 | 23 | 1011.0 |
| 20260502213007 | 85 | 80 | 13.0 | 19.0 | 0.00 | 0.00 | 0.00 | 25 | 1011.3 |
| 20260502211504 | 84 | 86 | 11.0 | 18.0 | 0.00 | 0.00 | 0.00 | 25 | 1011.5 |
| 20260502210045 | 84 | 60 | 6.0 | 17.0 | 0.00 | 0.00 | 0.00 | 27 | 1011.5 |
| 20260502204541 | 84 | 37 | 16.0 | 21.0 | 0.00 | 0.00 | 0.00 | 28 | 1011.6 |
| 20260502203024 | 84 | 87 | 13.0 | 22.0 | 0.00 | 0.00 | 0.00 | 29 | 1011.9 |
| 20260502201518 | 83 | 77 | 12.0 | 21.0 | 0.00 | 0.00 | 0.00 | 30 | 1012.1 |
| 20260502200100 | 82 | 68 | 11.0 | 19.0 | 0.00 | 0.00 | 0.00 | 31 | 1012.1 |
| 20260502194556 | 81 | 47 | 15.0 | 21.0 | 0.00 | 0.00 | 0.00 | 30 | 1012.5 |
| 20260502193035 | 81 | 49 | 14.0 | 20.0 | 0.00 | 0.00 | 0.00 | 29 | 1012.6 |
| 20260502191539 | 80 | 33 | 11.0 | 19.0 | 0.00 | 0.00 | 0.00 | 30 | 1012.8 |
| 20260502190005 | 79 | 40 | 16.0 | 21.0 | 0.00 | 0.00 | 0.00 | 31 | 1012.9 |
| 20260502184503 | 79 | 37 | 14.0 | 23.0 | 0.00 | 0.00 | 0.00 | 29 | 1013.2 |
| 20260502183109 | 78 | 25 | 12.0 | 19.0 | 0.00 | 0.00 | 0.00 | 30 | 1013.1 |
| 20260502181539 | 78 | 83 | 14.0 | 20.0 | 0.00 | 0.00 | 0.00 | 32 | 1013.2 |
| 20260502163040 | 72 | 48 | 13.0 | 21.0 | 0.00 | 0.00 | 0.00 | 36 | 1013.5 |
| 20260502161510 | 71 | 75 | 10.0 | 17.0 | 0.00 | 0.00 | 0.00 | 37 | 1013.5 |
| 20260502151518 | 70 | 41 | 11.0 | 16.0 | 0.00 | 0.00 | 0.00 | 38 | 1013.5 |
| 20260502123111 | 62 | 51 | 4.0 | 8.0 | 0.00 | 0.00 | 0.00 | 48 | 1012.8 |
| 20260502121554 | 53 | 82 | 7.0 | 8.0 | 0.00 | 0.00 | 0.00 | 71 | 1012.7 |
| 20260502114543 | 60 | 124 | 0.0 | 2.0 | 0.00 | 0.00 | 0.00 | 52 | 1012.9 |
| 20260502113049 | 64 | 11 | 6.0 | 11.0 | 0.00 | 0.00 | 0.00 | 44 | 1012.6 |
| 20260502111544 | 64 | 63 | 5.0 | 8.0 | 0.00 | 0.00 | 0.00 | 44 | 1012.5 |
| 20260502110042 | 60 | 39 | 7.0 | 8.0 | 0.00 | 0.00 | 0.00 | 50 | 1012.6 |
| 20260502104522 | 59 | 60 | 1.0 | 3.0 | 0.00 | 0.00 | 0.00 | 56 | 1012.7 |
| 20260502103021 | 54 | 300 | 2.0 | 7.0 | 0.00 | 0.00 | 0.00 | 68 | 1012.8 |
| 20260502101511 | 55 | 276 | 2.0 | 4.0 | 0.00 | 0.00 | 0.00 | 65 | 1012.7 |
| 20260502091508 | 69 | 26 | 7.0 | 14.0 | 0.00 | 0.00 | 0.00 | 35 | 1012.4 |
| 20260502071505 | 68 | 360 | 7.0 | 14.0 | 0.00 | 0.00 | 0.00 | 39 | 1012.6 |
| 20260502070005 | 69 | 4 | 9.0 | 12.0 | 0.00 | 0.00 | 0.00 | 38 | 1012.5 |
| 20260502064555 | 69 | 357 | 9.0 | 12.0 | 0.00 | 0.00 | 0.00 | 37 | 1012.5 |
| 20260502063053 | 70 | 358 | 8.0 | 13.0 | 0.00 | 0.00 | 0.00 | 37 | 1012.6 |
| 20260502061553 | 69 | 356 | 12.0 | 14.0 | 0.00 | 0.00 | 0.00 | 37 | 1012.6 |
| 20260502060054 | 68 | 350 | 13.0 | 15.0 | 0.00 | 0.00 | 0.00 | 39 | 1012.6 |
| 20260502054551 | 68 | 350 | 12.0 | 15.0 | 0.00 | 0.00 | 0.00 | 39 | 1012.5 |
| 20260502053056 | 68 | 350 | 13.0 | 15.0 | 0.00 | 0.00 | 0.00 | 40 | 1012.4 |
| 20260502051600 | 68 | 354 | 13.0 | 15.0 | 0.00 | 0.00 | 0.00 | 40 | 1012.4 |
| 20260502050051 | 69 | 349 | 13.0 | 15.0 | 0.00 | 0.00 | 0.00 | 39 | 1012.4 |